Regional Weather Roundup
Issued by NWS Mobile, AL

Home | Current Version | Previous Version | Text Only | Print | Product List | Glossary On
Versions: 1 2 3 4 5 6 7 8 9 10 11 12 13 14 15 16 17 18 19 20 21 22 23 24 25 26 27
000
ASUS44 KMOB 300312
RWRMOB
REGIONAL WEATHER ROUNDUP
NATIONAL WEATHER SERVICE MOBILE AL
1000 PM CDT WED MAR 29 2017

NOTE: "FAIR" INDICATES FEW OR NO CLOUDS BELOW 12,000 FEET WITH NO
      SIGNIFICANT WEATHER AND/OR OBSTRUCTIONS TO VISIBILITY.

  * THESE STATIONS ARE PART OF THE UNIVERSITY OF SOUTH ALABAMA
    MESONET AND ARE NOT UNDER NWS OR FAA QUALITY CONTROL.

ALZ061>064-300400-
COASTAL ALABAMA

CITY           SKY/WX    TMP DP  RH WIND       PRES   REMARKS
MOBILE REG APT CLOUDY    71  66  84 SE8       29.96F
BROOKLEY FIELD PTCLDY    72  69  90 SE12      29.96F
USA CAMPUS*      N/A     70  66  88 E3        29.96S
DOG RIVER*       N/A     72  68  88 SE15      30.69S


CITY           SKY/WX    TMP DP  RH WIND       PRES   REMARKS
GULF SHORES    PTCLDY    70  70 100 SE13G18   29.96F

$$

ALZ051>060-300400-
INTERIOR SOUTHWEST AND SOUTH CENTRAL ALABAMA

CITY           SKY/WX    TMP DP  RH WIND       PRES   REMARKS
GREENVILLE     CLEAR     69  55  60 S5        29.97S
EVERGREEN      CLEAR     66  61  84 S7        29.98R
ATMORE*          N/A     66  66 100 SE7       29.98F
ANDALUSIA/OPP  PTCLDY    69  58  67 S3        29.98F
ANDALUSIA*     NOT AVBL
FLORALA APT    CLEAR     65  60  84 S6        30.00F
FLORALA*       NOT AVBL

$$

FLZ001>006-300400-
WESTERN FLORIDA PANHANDLE

CITY           SKY/WX    TMP DP  RH WIND       PRES   REMARKS
PENSACOLA      CLOUDY    72  68  87 SE14      29.97S
NAS PENSACOLA  MOCLDY    71  66  84 SE13      29.97R
MILTON         CLOUDY    66  66 100 SE8       29.97F
WHTNG S FIELD  MOCLDY    70  67  90 SE10      29.97F


CITY           SKY/WX    TMP DP  RH WIND       PRES   REMARKS
JAY*             N/A     66  64  94 SE13      29.98S
DUKE FIELD     PTCLDY    67  65  94 SE6       29.97F
CRESTVIEW      CLOUDY    66  63  90 SE3       30.00S
VALPARAISO     PTCLDY    69  66  89 SE7       29.98F
DESTIN         CLOUDY    72  71  97 SE9       29.98F

$$

MSZ076-079-300400-
INTERIOR SOUTHEAST MISSISSIPPI

CITY           SKY/WX    TMP DP  RH WIND       PRES   REMARKS
LEAKESVILLE*     N/A     68  66  94 SE7       29.94R
AGRICOLA*        N/A     68  66  94 CALM      29.95R

$$

MARINE OBSERVATIONS

STATION/POSITION TIME  TEMP    WIND        PRES    WAVE
                       AIR SEA DIR/SP/G            HT/PER
                 (UTC) (F)     (DEG/KT/KT) (MB)    (FT/S)
PASCAGOULA       0248   73     150/ 13/ 17 1014.0R
PETIT BOIS ISLND 0248   72     140/ 13/ 16 1014.9R
GRAND BAY        0145   73     140/ 16     1015.0S
KATRINA CUT      0230          140/ 18     1013.9R
CEDAR POINT      0230   72     150/ 16     1014.2S
E DAUPHIN ISLAND 0200   72     130/ 18/ 21 1013.8F
MIDDLE BAY LIGHT 0230   72     140/ 19     1013.9F
USCG MOBILE BAY  0248   71 74  140/  6/ 11 1014.9F
STATE DOCKS      0242   71 68              1014.3F
MEAHER PARK      0230   70     120/  4     1014.6F
WEEKS BAY        0145   69                   N/A
FORT MORGAN      0248   72     140/ 20/ 23   N/A
12 S ORANGE BCH  0250   72 72  130/ 14/ 17 1014.2F   3/ 6
PENSACOLA BAY    0242   72 75  130/  2/  5 1015.1F
64 S DAUPHIN ISL 0250   73 73  130/ 17/ 21 1014.3S   5/ 6
67 S FORT MORGAN 0230   72     130/ 19     1014.6S

$$

SELECTED LOCATIONS ACROSS THE REGION

CITY           SKY/WX    TMP DP  RH WIND       PRES   REMARKS
NEW ORLEANS    MOCLDY    74  69  85 SE14      29.90R
GULFPORT       MOCLDY    74  68  81 SE17      29.93R
PASCAGOULA AP  CLOUDY    71  66  84 SE10      29.95S
PASCAGOULA*    NOT AVBL
HATTIESBURG    CLOUDY    71  64  78 SE9       29.94R
LAUREL         PTCLDY    70  63  78 S9        29.94R
MERIDIAN       PTCLDY    73  61  65 S10       29.90S
JACKSON        CLOUDY    75  64  68 S14       29.87R
MONTGOMERY     CLEAR     73  55  53 S9        29.96S
TROY           CLEAR     68  55  63 S5        29.99S
ASHFORD*       NOT AVBL
DOTHAN         CLEAR     68  56  65 S8        30.03R
PANAMA CITY    CLEAR     63  58  83 E3        29.99F

$$





USA.gov is the U.S. government's official web portal to all federal, state and local government web resources and services.